Location: Tucson
(32.2217°N, 110.9265°W)
Time: 18:12:27
(UTC-07:00)

BlueWalker 3 - Pass Details

Date: 08 December 2022
Orbit: 499 x 517 km, 53.2° (Epoch: 31 January)

Event Time Altitude Azimuth Distance (km) Brightness Sun altitude
Rises 18:24:58 0° 334° (NNW) 2,616 5.7 -13.7°
Reaches altitude 10° 18:28:16 10° 3° (N) 1,722 4.4 -14.4°
Enters shadow 18:29:18 12° 19° (NNE) 1,581 4.1 -14.6°
